Weather History for Nellis AFB, NV

Change the Weather History Date:

Thursday, November 10, 2011

  Actual Average Record
Temperature  
Mean Temperature 52 °F -  
Max Temperature 62 °F 66 °F 131 °F (2008)
Min Temperature 42 °F 43 °F 33 °F (1998)
Degree Days  
Heating Degree Days 13    
Growing Degree Days 2 (Base 50)    
Moisture  
Dew Point 22 °F    
Average Humidity 31    
Maximum Humidity 42    
Minimum Humidity 19    
Precipitation  
Precipitation 0.00 in - - ()
Sea Level Pressure  
Sea Level Pressure 30.31 in    
Wind  
Wind Speed 7 mph (NE)    
Max Wind Speed 15 mph    
Max Gust Speed -    
Visibility 10 miles    
Events      
Averages and records for this station are not official NWS values.
T = Trace of Precipitation, MM = Missing Value Source: NWS Daily Summary

Daily Weather History Graph

Daily Weather History Graph

Search for Another Location

Airport:

Trip Planner

Search our weather history database for the weather conditions in past years. The results will help you decide how hot, cold, wet, or windy it might be!

Date:

Astronomy

Nov. 10, 2011 Rise Set
Actual Time 6:11 AM PST 4:35 PM PST
Civil Twilight 5:44 AM PST 5:02 PM PST
Nautical Twilight 5:13 AM PST 5:33 PM PST
Astronomical Twilight 4:43 AM PST 6:03 PM PST
Moon 4:28 PM PST (11/10) 6:06 AM PST (11/10)
Length of Visible Light 11h 18m
Length of Day
10h 23m
Full, 100% of the Moon is Illuminated
Nov 10
Full
Nov 10
Full
Nov 18
Last Quarter
Nov 24
New
Dec 2
First Quarter

Hourly Weather History & Observations

Time (PST) Temp. Windchill Dew Point Humidity Pressure Visibility Wind Dir Wind Speed Gust Speed Precip Events Conditions
12:55 AM 48.2 °F - 20.7 °F 34% 30.41 in 10.0 mi East 9.2 mph - N/A   Clear
1:55 AM 47.3 °F - 20.5 °F 35% 30.41 in 10.0 mi ENE 10.4 mph - N/A   Clear
2:55 AM 45.3 °F 43.0 °F 20.7 °F 38% 30.41 in 10.0 mi North 4.6 mph - N/A   Clear
3:55 AM 42.3 °F - 20.5 °F 42% 30.42 in 10.0 mi Calm Calm - N/A   Clear
4:55 AM 47.1 °F - 21.0 °F 36% 30.41 in 10.0 mi ENE 10.4 mph - N/A   Clear
5:55 AM 42.1 °F 39.2 °F 20.3 °F 42% 30.43 in 10.0 mi NNE 4.6 mph - N/A   Clear
6:55 AM 46.0 °F 41.0 °F 20.8 °F 37% 30.43 in 10.0 mi East 10.4 mph - N/A   Clear
7:55 AM 52.2 °F - 21.0 °F 30% 30.44 in 10.0 mi NE 8.1 mph - N/A   Clear
8:55 AM 52.3 °F - 21.9 °F 30% 30.43 in 10.0 mi North 3.5 mph - N/A   Clear
9:55 AM 58.3 °F - 21.7 °F 24% 30.40 in 10.0 mi ENE 11.5 mph - N/A   Clear
10:55 AM 60.3 °F - 18.1 °F 20% 30.36 in 10.0 mi ENE 15.0 mph - N/A   Clear
11:55 AM 61.2 °F - 18.9 °F 20% 30.31 in 10.0 mi ENE 12.7 mph - N/A   Clear
12:55 PM 61.9 °F - 19.2 °F 19% 30.29 in 10.0 mi NE 10.4 mph - N/A   Partly Cloudy
1:55 PM 62.2 °F - 21.0 °F 21% 30.27 in 10.0 mi NNW 6.9 mph - N/A   Clear
2:55 PM 61.7 °F - 20.5 °F 20% 30.25 in 10.0 mi Calm Calm - N/A   Clear
3:55 PM 60.6 °F - 21.2 °F 22% 30.24 in 10.0 mi Calm Calm - N/A   Clear
4:55 PM 56.5 °F - 22.6 °F 27% 30.22 in 10.0 mi East 4.6 mph - N/A   Clear
5:55 PM 54.3 °F - 21.7 °F 28% 30.22 in 10.0 mi ENE 8.1 mph - N/A   Clear
6:55 PM 55.0 °F - 21.9 °F 28% 30.22 in 10.0 mi North 5.8 mph - N/A   Clear
7:55 PM 52.3 °F - 25.0 °F 35% 30.21 in 10.0 mi NNW 3.5 mph - N/A   Scattered Clouds
8:55 PM 50.5 °F - 25.3 °F 38% 30.20 in 10.0 mi Calm Calm - N/A   Clear
9:55 PM 51.6 °F - 24.6 °F 35% 30.19 in 10.0 mi Calm Calm - N/A   Clear
10:55 PM 48.4 °F - 25.5 °F 41% 30.17 in 10.0 mi NE 3.5 mph - N/A   Mostly Cloudy
11:55 PM 47.5 °F - 25.5 °F 42% 30.15 in 10.0 mi NNW 3.5 mph - N/A   Partly Cloudy